Location: Oberkirch
(48.5323°N, 8.0787°E)
Time: 09:16:38
(UTC+00:00)

CUBEBUG 2 - Pass Details

Date: 15 March 2026
Orbit: 548 x 627 km, 97.9° (Epoch: 19 April)

Event Time Altitude Azimuth Distance (km) Brightness Sun altitude
Rises 03:32:29 0° 357° (N) 2,891 ? -21.7°
Reaches altitude 10° 03:35:45 10° 330° (NNW) 1,994 ? -21.2°
Enters shadow 03:36:14 11° 324° (NW) 1,913 ? -21.1°
